Weather History for Pompano Beach, FL

Change the Weather History Date:

Saturday, November 17, 2012

  Actual Average Record
Temperature  
Mean Temperature 70 °F -  
Max Temperature 75 °F 81 °F 89 °F (1989)
Min Temperature 66 °F 64 °F 42 °F (1970)
Cooling Degree Days 6    
Growing Degree Days 20 (Base 50)    
Moisture  
Dew Point 66 °F    
Average Humidity 84    
Maximum Humidity 100    
Minimum Humidity 66    
Precipitation  
Precipitation 0.20 in - - ()
Sea Level Pressure  
Sea Level Pressure 30.06 in    
Wind  
Wind Speed 8 mph (NNE)    
Max Wind Speed 13 mph    
Max Gust Speed 18 mph    
Visibility 10 miles    
Events Rain    
Averages and records for this station are not official NWS values.
T = Trace of Precipitation, MM = Missing Value Source: NWS Daily Summary

Daily Weather History Graph

Daily Weather History Graph

Search for Another Location

Airport:

Trip Planner

Search our weather history database for the weather conditions in past years. The results will help you decide how hot, cold, wet, or windy it might be!

Date:

Astronomy

Nov. 17, 2012 Rise Set
Actual Time 6:40 AM EST 5:29 PM EST
Civil Twilight 6:16 AM EST 5:54 PM EST
Nautical Twilight 5:48 AM EST 6:22 PM EST
Astronomical Twilight 5:20 AM EST 6:50 PM EST
Moon 10:23 AM EST (11/17) 9:36 PM EST (11/17)
Length of Visible Light 11h 37m
Length of Day
10h 48m
Waxing Crescent, 20% of the Moon is Illuminated
Nov 17
Waxing Crescent
Nov 20
First Quarter
Nov 28
Full
Dec 6
Last Quarter
Dec 13
New

Hourly Weather History & Observations

Time (EST) Temp. Dew Point Humidity Pressure Visibility Wind Dir Wind Speed Gust Speed Precip Events Conditions
12:53 AM 68.0 °F 68.0 °F 100% 30.05 in 10.0 mi NW 5.8 mph - 0.11 in   Overcast
1:53 AM 66.9 °F 66.9 °F 100% 30.04 in 10.0 mi NNW 8.1 mph - 0.04 in Rain Light Rain
2:53 AM 66.0 °F 66.0 °F 100% 30.03 in 10.0 mi NW 6.9 mph - 0.00 in   Partly Cloudy
3:53 AM 66.0 °F 66.0 °F 100% 30.03 in 10.0 mi NNW 5.8 mph - N/A   Scattered Clouds
4:32 AM 66.2 °F 66.2 °F 100% 30.04 in 10.0 mi Calm Calm - N/A   Mostly Cloudy
4:53 AM 66.9 °F 66.9 °F 100% 30.05 in 10.0 mi North 4.6 mph - N/A   Mostly Cloudy
5:53 AM 66.0 °F 66.0 °F 100% 30.06 in 10.0 mi North 4.6 mph - N/A   Clear
6:53 AM 66.9 °F 66.9 °F 100% 30.07 in 10.0 mi North 9.2 mph - N/A   Clear
8:53 AM 69.1 °F 68.0 °F 96% 30.10 in 10.0 mi NNE 11.5 mph - N/A   Partly Cloudy
9:53 AM 73.0 °F 66.0 °F 79% 30.11 in 10.0 mi NE 12.7 mph - N/A   Scattered Clouds
10:53 AM 73.9 °F 66.9 °F 79% 30.10 in 10.0 mi ENE 10.4 mph - N/A   Scattered Clouds
11:53 AM 75.0 °F 64.9 °F 71% 30.09 in 10.0 mi ENE 10.4 mph - N/A   Scattered Clouds
12:53 PM 73.9 °F 64.9 °F 73% 30.06 in 10.0 mi NE 10.4 mph - N/A   Scattered Clouds
1:53 PM 75.9 °F 64.0 °F 67% 30.04 in 10.0 mi NE 11.5 mph - N/A   Scattered Clouds
2:53 PM 75.9 °F 64.0 °F 67% 30.04 in 10.0 mi NE 12.7 mph - N/A   Partly Cloudy
3:53 PM 75.0 °F 63.0 °F 66% 30.04 in 10.0 mi ENE 10.4 mph - N/A   Partly Cloudy
4:53 PM 73.9 °F 64.9 °F 73% 30.05 in 10.0 mi NE 12.7 mph 18.4 mph 0.00 in   Mostly Cloudy
5:53 PM 72.0 °F 66.0 °F 81% 30.05 in 10.0 mi NE 10.4 mph - 0.03 in   Mostly Cloudy
6:53 PM 73.0 °F 66.0 °F 79% 30.06 in 10.0 mi NE 10.4 mph - N/A   Partly Cloudy
7:53 PM 73.0 °F 64.0 °F 73% 30.07 in 10.0 mi NE 9.2 mph - N/A   Partly Cloudy
8:53 PM 73.0 °F 63.0 °F 71% 30.07 in 10.0 mi NE 9.2 mph - N/A   Partly Cloudy
9:53 PM 73.0 °F 64.9 °F 76% 30.07 in 10.0 mi NE 10.4 mph - N/A   Mostly Cloudy
10:53 PM 71.1 °F 68.0 °F 90% 30.07 in 10.0 mi North 9.2 mph - 0.02 in Rain Light Rain
11:53 PM 72.0 °F 64.9 °F 78% 30.06 in 10.0 mi NE 10.4 mph 17.3 mph 0.00 in   Mostly Cloudy